This is the latest recevied weather packets stored in our database for station/object KD8TSA. If no packets are shown the sender has not sent any weather packets the latest 10 day(s).
| Time | Temp. | Humidity | Pressure | Rain* | Wind** | Luminosity | Snow |
|---|---|---|---|---|---|---|---|
| 1777498639 | 16.67° C | 81% | 1009.2 hPa | 0 mm | - | 441 W/m² | - |
| 1777498334 | 16.67° C | 79% | 1008.9 hPa | 0 mm | - | 122 W/m² | - |
| 1777498033 | 16.67° C | 79% | 1008.9 hPa | 0 mm | - | 145 W/m² | - |
| 1777497730 | 16.67° C | 79% | 1008.8 hPa | 0 mm | - | 184 W/m² | - |
| 1777497426 | 17.22° C | 78% | 1009 hPa | 0 mm | - | 168 W/m² | - |
| 1777497122 | 17.22° C | 78% | 1008.9 hPa | 0 mm | - | 248 W/m² | - |
| 1777496819 | 16.67° C | 78% | 1008.7 hPa | 0 mm | - | 215 W/m² | - |
| 1777496516 | 16.67° C | 79% | 1008.7 hPa | 0 mm | - | 347 W/m² | - |
| 1777496212 | 17.22° C | 82% | 1008.7 hPa | 0 mm | - | 440 W/m² | - |
| 1777495908 | 16.67° C | 83% | 1008.7 hPa | 0 mm | - | 484 W/m² | - |
| 1777495604 | 16.67° C | 83% | 1008.8 hPa | 0 mm | - | 459 W/m² | - |
| 1777495300 | 16.11° C | 85% | 1008.8 hPa | 0 mm | - | 489 W/m² | - |
| 1777494998 | 15.56° C | 87% | 1008.8 hPa | 0 mm | - | 324 W/m² | - |
| 1777494695 | 15.56° C | 90% | 1008.8 hPa | 0 mm | - | 250 W/m² | - |
| 1777494392 | 15.56° C | 92% | 1009 hPa | 0 mm | - | 203 W/m² | - |
| 1777494088 | 15° C | 94% | 1009 hPa | 0 mm | - | 622 W/m² | - |
| 1777493786 | 15° C | 95% | 1009.2 hPa | 0 mm | - | 229 W/m² | - |
| 1777493483 | 15° C | 97% | 1009 hPa | 0 mm | - | 240 W/m² | - |
| 1777493180 | 15° C | 97% | 1009.1 hPa | 0 mm | - | 647 W/m² | - |
| 1777492876 | 14.44° C | 98% | 1008.9 hPa | 0 mm | - | 478 W/m² | - |
| 1777492573 | 13.89° C | 98% | 1008.9 hPa | 0 mm | - | 317 W/m² | - |
| 1777492268 | 13.89° C | 98% | 1008.9 hPa | 0 mm | - | 193 W/m² | - |
| 1777491966 | 13.33° C | 98% | 1008.9 hPa | 0 mm | - | 340 W/m² | - |
| 1777491662 | 13.33° C | 98% | 1009 hPa | 0 mm | - | 266 W/m² | - |
| 1777491360 | 13.33° C | 99% | 1009.1 hPa | 0 mm | - | 90 W/m² | - |
* Rain latest hour (hover to see other rain measurements)
** Current wind speed in m/s (hover to see current wind gust speed)